Weather Display Live

LIVE WEATHER, Rathlin Island , Northern Ireland , UK.
- Weather Data Uploaded via a WMR200 Weather Station -
-
Live Data More Data Mobile Radar AIS Tides Forecast Community Shipwrecks Tides round Rathlin Facebook

This page is updated from recent data collected by a DAVIS VANTAGE PRO weather station Use the Reload or Refresh facility on your browser to retrieve the latest data.



Weather report/warning/Metars

Eglinton / Londonderr, United Kingdom (EGAE) 55-03N 007-09W
Jan 18, 2020 - 09:20 AM EST / 2020.01.18 1420 UTC
Wind: from the WNW (300 degrees) at 7 MPH (6 KT) (direction variable):0
Visibility: greater than 7 mile(s):0
Sky conditions: partly cloudy
Weather: light rain showers
Temperature: 42 F (6 C)
Dew Point: 39 F (4 C)
Relative Humidity: 86%
Pressure (altimeter): 30.42 in. Hg (1030 hPa)
ob: EGAE 181420Z 30006KT 240V010 9999 -SHRA FEW013 SCT028 06/04 Q1030
cycle: 14



Use the RELOAD facility on your browser to retrieve the latest data.

Click here for a daily update of the averages/extremes to date for the month
Created by "Weather Display" software version 10.37S at this start time/date 14:08:10 13/01/2020